コワル-リニア彗星

158P/Kowal-LINEAR (2002)

English version
Home page
Total 6,336 html files since Dec. 4, 1995
Updated on September 21, 2007

---------------------------------------------------------------------

・ プロフィール

符号 158P/2001 RG100
再発見日 2001年9月12日
再発見光度 19.1等
再発見者 Lincoln Laboratory Near-Earth Asteroid Research project

・ 軌道要素

Epoch 2002 July 25.0 TT = JDT 2452480.5
T 2002 July 25.61893 TT                                 MPC
q   4.5949872            (2000.0)            P               Q
n   0.09576196     Peri.  235.57304     +0.96950264     -0.22665878
a   4.7315927      Node   137.31333     +0.24444552     +0.92167460
e   0.0288709      Incl.    7.90313     -0.01763579     +0.31486779
P  10.29

・ 星図

・ 光度変化

        m1 = 9.2 + 5 logΔ + 10.0 log r

---------------------------------------------------------------------

軌道要素はM.P.E.C. 2003-W74に掲載されたものです。
星図は StellaNavigator Ver.2.0 for Windows (アストロアーツ 編著 / アスキー出版局刊) で作成したものです。
光度グラフはComet for Windowsで作成したものです。

---------------------------------------------------------------------

Copyright(C) 1995-2008 Seiichi Yoshida (comet@aerith.net). All rights reserved.